Pueblo, CO

6:15 AM MST on December 18, 2017 (GMT -0700)
Pueblo Memorial

Weather History for KPUB - September, 2013

Change the Weather History Date:

Monday, September 23, 2013

  Actual Average Record
Temperature  
Mean Temperature 63 °F 61 °F  
Max Temperature 76 °F 79 °F 95 °F (2003)
Min Temperature 50 °F 44 °F 28 °F (1895)
Degree Days  
Heating Degree Days 2 5  
Month to date heating degree days 4 51  
Since 1 July heating degree days 4 56  
Cooling Degree Days 0 1  
Month to date cooling degree days 158 76  
Year to date cooling degree days 1218 887  
Growing Degree Days 13 (Base 50)    
Moisture  
Dew Point 39 °F    
Average Humidity 51    
Maximum Humidity 86    
Minimum Humidity 16    
Precipitation  
Precipitation T in 0.03 in 0.44 in (1960)
Month to date precipitation 1.27 0.63  
Year to date precipitation 9.07 10.86  
Snow  
Snow 0.00 in 0.00 in 0.00 in (2002)
Month to date snowfall 0.0 0.2  
Since 1 July snowfall T 0.2  
Since 1 September snowfall 0.0 0.2  
Snow Depth 0.00 in    
Sea Level Pressure  
Sea Level Pressure 29.68 in    
Wind  
Wind Speed 12 mph (WNW)    
Max Wind Speed 30 mph    
Max Gust Speed 44 mph    
Visibility 10 miles    
Events Rain    
T = Trace of Precipitation, MM = Missing Value Source: NWS Daily Summary

Daily Weather History Graph

Daily Weather History Graph

Search for Another Location

Airport or City:

Trip Planner

Search our weather history database for the weather conditions in past years. The results will help you decide how hot, cold, wet, or windy it might be!

Date:

Astronomy

Sep. 23, 2013 Rise Set
Actual Time 6:46 AM MDT 6:52 PM MDT
Civil Twilight 6:20 AM MDT 7:19 PM MDT
Nautical Twilight 5:49 AM MDT 7:50 PM MDT
Astronomical Twilight 5:18 AM MDT 8:21 PM MDT
Moon 9:31 PM MDT (9/23) 11:04 AM MDT (9/23)
Length of Visible Light 12h 58m
Length of Day
12h 06m
Waning Gibbous, 81% of the Moon is Illuminated
Sep 23
Waning Gibbous
Sep 26
Last Quarter
Oct 4
New
Oct 11
First Quarter
Oct 18
Full

Hourly Weather History & Observations

Time (MDT) Temp. Dew Point Humidity Pressure Visibility Wind Dir Wind Speed Gust Speed Precip Events Conditions
12:53 AM 55.0 °F 51.1 °F 86% 29.43 in 10.0 mi SSW 3.5 mph - N/A   Clear
1:53 AM 55.9 °F 48.9 °F 77% 29.42 in 10.0 mi SW 9.2 mph - N/A   Mostly Cloudy
2:53 AM 55.9 °F 44.1 °F 64% 29.40 in 10.0 mi WNW 11.5 mph - N/A   Overcast
3:53 AM 55.9 °F 42.1 °F 60% 29.40 in 10.0 mi WNW 26.5 mph 32.2 mph 0.00 in Rain Light Rain
4:53 AM 55.0 °F 43.0 °F 64% 29.43 in 10.0 mi NW 16.1 mph - 0.00 in   Overcast
5:53 AM 57.0 °F 42.1 °F 57% 29.48 in 10.0 mi NW 12.7 mph - 0.00 in   Overcast
6:53 AM 53.1 °F 48.0 °F 83% 29.53 in 10.0 mi ENE 10.4 mph - 0.00 in   Overcast
7:53 AM 53.1 °F 46.9 °F 80% 29.57 in 10.0 mi Variable 3.5 mph - N/A   Overcast
8:53 AM 54.0 °F 48.0 °F 80% 29.60 in 10.0 mi SSW 6.9 mph - N/A   Clear
9:53 AM 57.9 °F 48.0 °F 70% 29.62 in 10.0 mi SE 4.6 mph - N/A   Clear
10:53 AM 64.0 °F 46.9 °F 54% 29.62 in 10.0 mi Calm Calm - N/A   Clear
11:53 AM 72.0 °F 35.1 °F 26% 29.62 in 10.0 mi West 25.3 mph 31.1 mph N/A   Partly Cloudy
12:53 PM 73.9 °F 30.9 °F 21% 29.64 in 10.0 mi WNW 17.3 mph 28.8 mph N/A   Clear
1:53 PM 75.0 °F 28.9 °F 18% 29.65 in 10.0 mi West 23.0 mph 31.1 mph N/A   Clear
2:43 PM 75.2 °F 33.8 °F 22% 29.83 in 10.0 mi NW 17.3 mph 23.0 mph N/A   Clear
2:53 PM 75.0 °F 28.0 °F 18% 29.68 in 10.0 mi WNW 19.6 mph 29.9 mph N/A   Clear
3:00 PM 75.2 °F 28.4 °F 18% 29.83 in 10.0 mi WNW 20.7 mph 27.6 mph N/A   Clear
3:53 PM 75.0 °F 28.0 °F 18% 29.70 in 10.0 mi WNW 20.7 mph 29.9 mph N/A   Clear
4:53 PM 75.0 °F 27.0 °F 17% 29.73 in 10.0 mi WNW 16.1 mph - N/A   Partly Cloudy
5:53 PM 73.9 °F 32.0 °F 21% 29.77 in 10.0 mi North 10.4 mph - N/A   Scattered Clouds
6:53 PM 66.9 °F 35.1 °F 31% 29.84 in 10.0 mi NNE 13.8 mph - N/A   Partly Cloudy
7:53 PM 63.0 °F 36.0 °F 37% 29.88 in 10.0 mi NNE 9.2 mph - N/A   Clear
8:53 PM 57.9 °F 37.9 °F 47% 29.94 in 10.0 mi West 4.6 mph - N/A   Clear
9:53 PM 54.0 °F 39.9 °F 59% 29.97 in 10.0 mi West 4.6 mph - N/A   Clear
10:53 PM 53.1 °F 39.9 °F 61% 29.97 in 10.0 mi Calm Calm - N/A   Clear
11:53 PM 51.1 °F 39.9 °F 66% 29.96 in 10.0 mi West 3.5 mph - N/A   Clear